Tracking 25193 objects as of 17-Jan-2022
HD Live streaming from Space Station
objects crossing your sky now

USA 40 R/B DEB

Track USA 40 R/B DEB now!
10-day predictions


NORAD ID: 23388
Int'l Code: 1989-061BL
Perigee: 492.0 km
Apogee: 5,757.7 km
Inclination: 57.0 °
Period: 153.5 minutes
Semi major axis: 9495 km
RCS: Unknown
Launch date: August 8, 1989
Source: United States (US)
Launch site: AIR FORCE EASTERN TEST RANGE (AFETR)

Note: This is SATELLITE DEBRIS
aabbcc
Your satellite tracking list
Your tracking list is empty




NASA's NSSDC Master Catalog

Two Line Element Set (TLE):
1 23388U 89061BL  22016.88251144  .00014298  00000-0  76144-2 0  9990
2 23388  57.0111 264.8668 2772613  98.6703 293.4183  9.38217592 99804
Source of the keplerian elements: AFSPC